| time (UTC) | temp F | wind direction | speed MPH | gust MPH | rain 1hr in | rain 24hr in | rain mn in | humidity % | barometer mb |
| 20260505153006 | 76 | 210 | 6.0 | 14.0 | 0.00 | 0.00 | 0.00 | 50 | 1005.7 |
| 20260505152504 | 76 | 183 | 6.0 | 14.0 | 0.00 | 0.00 | 0.00 | 48 | 1005.6 |
| 20260505152002 | 76 | 196 | 2.0 | 12.0 | 0.00 | 0.00 | 0.00 | 50 | 1005.8 |
| 20260505151601 | 75 | 232 | 6.0 | 12.0 | 0.00 | 0.00 | 0.00 | 49 | 1005.8 |
| 20260505151101 | 75 | 216 | 7.0 | 11.0 | 0.00 | 0.00 | 0.00 | 51 | 1005.9 |
| 20260505150558 | 75 | 246 | 6.0 | 12.0 | 0.00 | 0.00 | 0.00 | 52 | 1006.0 |
| 20260505140546 | 70 | 233 | 4.0 | 12.0 | 0.00 | 0.00 | 0.00 | 59 | 1005.8 |
| 20260505125030 | 65 | 227 | 6.0 | 12.0 | 0.00 | 0.00 | 0.00 | 63 | 1006.0 |
| 20260505124536 | 65 | 229 | 6.0 | 12.0 | 0.00 | 0.00 | 0.00 | 64 | 1006.0 |
| 20260505124027 | 65 | 228 | 6.0 | 10.0 | 0.00 | 0.00 | 0.00 | 63 | 1005.9 |
| 20260505123526 | 64 | 241 | 6.0 | 11.0 | 0.00 | 0.00 | 0.00 | 64 | 1005.9 |
| 20260505123025 | 64 | 231 | 5.0 | 11.0 | 0.00 | 0.00 | 0.00 | 65 | 1005.9 |
| 20260505122524 | 64 | 145 | 5.0 | 11.0 | 0.00 | 0.00 | 0.00 | 65 | 1005.8 |
| 20260505122027 | 63 | 220 | 6.0 | 11.0 | 0.00 | 0.00 | 0.00 | 65 | 1005.7 |
| 20260505121522 | 63 | 245 | 5.0 | 11.0 | 0.00 | 0.00 | 0.00 | 66 | 1005.8 |
| 20260505121022 | 63 | 210 | 4.0 | 11.0 | 0.00 | 0.00 | 0.00 | 66 | 1005.8 |
| 20260505120522 | 63 | 236 | 5.0 | 11.0 | 0.00 | 0.00 | 0.00 | 66 | 1005.8 |
| 20260505120023 | 63 | 216 | 5.0 | 11.0 | 0.00 | 0.00 | 0.00 | 66 | 1005.7 |
| 20260505115519 | 63 | 218 | 4.0 | 9.0 | 0.00 | 0.00 | 0.00 | 67 | 1005.8 |
| 20260505115017 | 62 | 234 | 4.0 | 9.0 | 0.00 | 0.00 | 0.00 | 67 | 1005.7 |
| 20260505114517 | 62 | 233 | 4.0 | 11.0 | 0.00 | 0.00 | 0.00 | 67 | 1005.6 |
| 20260505114016 | 62 | 236 | 6.0 | 11.0 | 0.00 | 0.00 | 0.00 | 67 | 1005.6 |
| 20260505113516 | 62 | 244 | 4.0 | 9.0 | 0.00 | 0.00 | 0.00 | 67 | 1005.6 |
| 20260505113016 | 61 | 231 | 4.0 | 9.0 | 0.00 | 0.00 | 0.00 | 68 | 1005.6 |
| 20260505112515 | 61 | 235 | 4.0 | 9.0 | 0.00 | 0.00 | 0.00 | 68 | 1005.6 |
| 20260505112014 | 61 | 224 | 5.0 | 9.0 | 0.00 | 0.00 | 0.00 | 68 | 1005.6 |
| 20260505111514 | 60 | 230 | 4.0 | 8.0 | 0.00 | 0.00 | 0.00 | 69 | 1005.5 |
| 20260505111017 | 60 | 240 | 4.0 | 8.0 | 0.00 | 0.00 | 0.00 | 69 | 1005.5 |
| 20260505110512 | 60 | 227 | 4.0 | 8.0 | 0.00 | 0.00 | 0.00 | 69 | 1005.4 |
| 20260505102008 | 59 | 207 | 3.0 | 6.0 | 0.00 | 0.00 | 0.00 | 69 | 1005.0 |
| 20260505101509 | 59 | 236 | 2.0 | 6.0 | 0.00 | 0.00 | 0.00 | 69 | 1005.0 |
| 20260505101009 | 59 | 214 | 2.0 | 4.0 | 0.00 | 0.00 | 0.00 | 69 | 1004.9 |
| 20260505100508 | 59 | 208 | 2.0 | 4.0 | 0.00 | 0.00 | 0.00 | 69 | 1005.0 |
| 20260505100009 | 59 | 201 | 1.0 | 4.0 | 0.00 | 0.00 | 0.00 | 68 | 1005.0 |
| 20260505095506 | 59 | 225 | 2.0 | 4.0 | 0.00 | 0.00 | 0.00 | 68 | 1004.9 |
| 20260505095006 | 59 | 212 | 1.0 | 4.0 | 0.00 | 0.00 | 0.00 | 68 | 1005.0 |
| 20260505094510 | 59 | 212 | 1.0 | 4.0 | 0.00 | 0.00 | 0.00 | 68 | 1005.0 |
| 20260505094006 | 59 | 214 | 1.0 | 4.0 | 0.00 | 0.00 | 0.00 | 67 | 1004.9 |
| 20260505093506 | 59 | 236 | 1.0 | 4.0 | 0.00 | 0.00 | 0.00 | 67 | 1004.9 |
| 20260505093005 | 59 | 188 | 1.0 | 4.0 | 0.00 | 0.00 | 0.00 | 67 | 1004.9 |
| 20260505092505 | 60 | 228 | 1.0 | 6.0 | 0.00 | 0.00 | 0.00 | 66 | 1005.1 |
| 20260505092005 | 60 | 212 | 2.0 | 6.0 | 0.00 | 0.00 | 0.00 | 66 | 1005.0 |
| 20260505091505 | 60 | 212 | 1.0 | 5.0 | 0.00 | 0.00 | 0.00 | 66 | 1005.0 |
| 20260505091004 | 60 | 205 | 2.0 | 5.0 | 0.00 | 0.00 | 0.00 | 66 | 1004.9 |
| 20260505090504 | 60 | 214 | 2.0 | 5.0 | 0.00 | 0.00 | 0.00 | 66 | 1004.9 |
| 20260505090003 | 59 | 245 | 1.0 | 4.0 | 0.00 | 0.00 | 0.00 | 66 | 1004.9 |
| 20260505085504 | 60 | 251 | 1.0 | 5.0 | 0.00 | 0.00 | 0.00 | 66 | 1004.9 |
| 20260505085003 | 60 | 233 | 1.0 | 5.0 | 0.00 | 0.00 | 0.00 | 66 | 1004.8 |
| 20260505084505 | 60 | 201 | 1.0 | 4.0 | 0.00 | 0.00 | 0.00 | 65 | 1004.8 |
| 20260505084000 | 60 | 229 | 1.0 | 4.0 | 0.00 | 0.00 | 0.00 | 65 | 1004.7 |
| 20260505083600 | 60 | 220 | 1.0 | 4.0 | 0.00 | 0.00 | 0.00 | 65 | 1004.7 |
| 20260505083105 | 60 | 216 | 2.0 | 4.0 | 0.00 | 0.00 | 0.00 | 65 | 1004.7 |
| 20260505082559 | 60 | 240 | 1.0 | 6.0 | 0.00 | 0.00 | 0.00 | 65 | 1004.6 |
| 20260505082059 | 60 | 218 | 1.0 | 6.0 | 0.00 | 0.00 | 0.00 | 65 | 1004.7 |
| 20260505081658 | 60 | 204 | 1.0 | 5.0 | 0.00 | 0.00 | 0.00 | 64 | 1004.7 |
| 20260505081057 | 60 | 204 | 2.0 | 5.0 | 0.00 | 0.00 | 0.00 | 64 | 1004.6 |
| 20260505080556 | 60 | 139 | 1.0 | 6.0 | 0.00 | 0.00 | 0.00 | 63 | 1004.5 |
| 20260505080111 | 61 | 224 | 2.0 | 6.0 | 0.00 | 0.00 | 0.00 | 63 | 1004.6 |
| 20260505075556 | 61 | 220 | 2.0 | 6.0 | 0.00 | 0.00 | 0.00 | 63 | 1004.6 |
| 20260505075057 | 61 | 208 | 2.0 | 6.0 | 0.00 | 0.00 | 0.00 | 63 | 1004.6 |
| 20260505074555 | 61 | 220 | 2.0 | 7.0 | 0.00 | 0.00 | 0.00 | 63 | 1004.6 |
| 20260505074055 | 61 | 190 | 1.0 | 7.0 | 0.00 | 0.00 | 0.00 | 63 | 1004.7 |
| 20260505073555 | 61 | 212 | 2.0 | 5.0 | 0.00 | 0.00 | 0.00 | 63 | 1004.6 |
| 20260505073100 | 61 | 195 | 1.0 | 3.0 | 0.00 | 0.00 | 0.00 | 63 | 1004.6 |
| 20260505072554 | 61 | 222 | 2.0 | 6.0 | 0.00 | 0.00 | 0.00 | 63 | 1004.6 |
| 20260505072053 | 61 | 217 | 2.0 | 6.0 | 0.00 | 0.00 | 0.00 | 64 | 1004.5 |
| 20260505071553 | 61 | 204 | 1.0 | 5.0 | 0.00 | 0.00 | 0.00 | 64 | 1004.5 |
| 20260505071053 | 60 | 212 | 1.0 | 5.0 | 0.00 | 0.00 | 0.00 | 64 | 1004.5 |
| 20260505070556 | 60 | 195 | 0.0 | 4.0 | 0.00 | 0.00 | 0.00 | 64 | 1004.4 |
| 20260505070052 | 60 | 195 | 0.0 | 5.0 | 0.00 | 0.00 | 0.00 | 64 | 1004.4 |
| 20260505065552 | 61 | 221 | 1.0 | 5.0 | 0.00 | 0.00 | 0.00 | 64 | 1004.4 |
| 20260505065050 | 61 | 205 | 1.0 | 4.0 | 0.00 | 0.00 | 0.00 | 64 | 1004.3 |
| 20260505064558 | 61 | 209 | 1.0 | 5.0 | 0.00 | 0.00 | 0.00 | 64 | 1004.1 |
| 20260505064051 | 60 | 246 | 1.0 | 5.0 | 0.00 | 0.00 | 0.00 | 64 | 1004.2 |
| 20260505063551 | 60 | 226 | 1.0 | 4.0 | 0.00 | 0.00 | 0.00 | 64 | 1004.2 |
| 20260505063054 | 60 | 209 | 0.0 | 3.0 | 0.00 | 0.00 | 0.00 | 64 | 1004.2 |
| 20260505062552 | 60 | 212 | 0.0 | 4.0 | 0.00 | 0.00 | 0.00 | 64 | 1004.2 |
| 20260505062049 | 60 | 221 | 1.0 | 4.0 | 0.00 | 0.00 | 0.00 | 64 | 1004.1 |
| 20260505061551 | 61 | 208 | 1.0 | 4.0 | 0.00 | 0.00 | 0.00 | 64 | 1004.2 |
| 20260505061050 | 61 | 196 | 1.0 | 5.0 | 0.00 | 0.00 | 0.00 | 64 | 1004.2 |
| 20260505060547 | 61 | 185 | 1.0 | 6.0 | 0.00 | 0.00 | 0.00 | 64 | 1004.2 |
| 20260505060047 | 61 | 214 | 2.0 | 6.0 | 0.00 | 0.00 | 0.00 | 64 | 1004.2 |
| 20260505055546 | 61 | 201 | 1.0 | 6.0 | 0.00 | 0.00 | 0.00 | 64 | 1004.1 |
| 20260505055048 | 61 | 214 | 0.0 | 5.0 | 0.00 | 0.00 | 0.00 | 63 | 1004.0 |
| 20260505054546 | 61 | 179 | 0.0 | 3.0 | 0.00 | 0.00 | 0.00 | 63 | 1004.0 |
| 20260505054043 | 61 | 165 | 0.0 | 4.0 | 0.00 | 0.00 | 0.00 | 63 | 1004.0 |
| 20260505053542 | 62 | 154 | 0.0 | 4.0 | 0.00 | 0.00 | 0.00 | 62 | 1003.9 |
| 20260505053106 | 62 | 212 | 1.0 | 6.0 | 0.00 | 0.00 | 0.00 | 62 | 1004.0 |
| 20260505052541 | 62 | 203 | 1.0 | 5.0 | 0.00 | 0.00 | 0.00 | 62 | 1003.9 |
| 20260505052042 | 62 | 218 | 1.0 | 4.0 | 0.00 | 0.00 | 0.00 | 62 | 1004.0 |
| 20260505051541 | 62 | 201 | 1.0 | 4.0 | 0.00 | 0.00 | 0.00 | 62 | 1003.9 |
| 20260505051042 | 62 | 181 | 1.0 | 4.0 | 0.00 | 0.00 | 0.00 | 62 | 1003.9 |
| 20260505050541 | 62 | 212 | 1.0 | 5.0 | 0.00 | 0.00 | 0.00 | 62 | 1003.9 |
| 20260505041541 | 62 | 160 | 0.0 | 3.0 | 0.00 | 0.00 | 0.00 | 61 | 1003.6 |
| 20260505041035 | 63 | 195 | 0.0 | 2.0 | 0.00 | 0.00 | 0.00 | 61 | 1003.6 |
| 20260505040532 | 63 | 191 | 0.0 | 2.0 | 0.00 | 0.00 | 0.00 | 61 | 1003.6 |
| 20260505040030 | 63 | 226 | 0.0 | 2.0 | 0.00 | 0.00 | 0.00 | 61 | 1003.6 |
| 20260505035531 | 63 | 184 | 0.0 | 3.0 | 0.00 | 0.00 | 0.00 | 61 | 1003.6 |
| 20260505035029 | 63 | 165 | 0.0 | 3.0 | 0.00 | 0.00 | 0.00 | 61 | 1003.7 |
| 20260505034532 | 63 | 203 | 0.0 | 3.0 | 0.00 | 0.00 | 0.00 | 61 | 1003.7 |
| 20260505034031 | 63 | 199 | 0.0 | 1.0 | 0.00 | 0.00 | 0.00 | 61 | 1003.6 |
| 20260505033532 | 63 | 207 | 0.0 | 1.0 | 0.00 | 0.00 | 0.00 | 61 | 1003.6 |
| 20260505033029 | 63 | 214 | 0.0 | 1.0 | 0.00 | 0.00 | 0.00 | 60 | 1003.7 |
| 20260505032529 | 63 | 181 | 0.0 | 3.0 | 0.00 | 0.00 | 0.00 | 60 | 1003.7 |
| 20260505032028 | 63 | 207 | 0.0 | 2.0 | 0.00 | 0.00 | 0.00 | 59 | 1003.8 |
| 20260505031529 | 63 | 179 | 0.0 | 2.0 | 0.00 | 0.00 | 0.00 | 59 | 1003.8 |
| 20260505031032 | 64 | 198 | 0.0 | 1.0 | 0.00 | 0.00 | 0.00 | 58 | 1003.9 |
| 20260505030530 | 64 | 196 | 0.0 | 1.0 | 0.00 | 0.00 | 0.00 | 58 | 1003.9 |
| 20260505030028 | 65 | 203 | 0.0 | 1.0 | 0.00 | 0.00 | 0.00 | 57 | 1003.9 |
| 20260505025528 | 65 | 190 | 0.0 | 2.0 | 0.00 | 0.00 | 0.00 | 56 | 1003.9 |
| 20260505025027 | 65 | 191 | 0.0 | 3.0 | 0.00 | 0.00 | 0.00 | 56 | 1004.0 |
| 20260505024527 | 66 | 157 | 0.0 | 3.0 | 0.00 | 0.00 | 0.00 | 55 | 1003.9 |
| 20260505024030 | 66 | 183 | 0.0 | 2.0 | 0.00 | 0.00 | 0.00 | 55 | 1003.9 |
| 20260505023527 | 66 | 186 | 0.0 | 2.0 | 0.00 | 0.00 | 0.00 | 54 | 1003.9 |
| 20260505023027 | 66 | 158 | 0.0 | 3.0 | 0.00 | 0.00 | 0.00 | 54 | 1003.9 |
| 20260505022630 | 67 | 231 | 0.0 | 3.0 | 0.00 | 0.00 | 0.00 | 54 | 1004.0 |
| 20260505022027 | 67 | 221 | 0.0 | 3.0 | 0.00 | 0.00 | 0.00 | 54 | 1004.0 |
| 20260505021530 | 67 | 224 | 0.0 | 3.0 | 0.00 | 0.00 | 0.00 | 53 | 1004.0 |
| 20260505021026 | 67 | 185 | 0.0 | 3.0 | 0.00 | 0.00 | 0.00 | 53 | 1004.0 |
| 20260505020527 | 68 | 194 | 0.0 | 4.0 | 0.00 | 0.00 | 0.00 | 52 | 1003.9 |
| 20260505020026 | 68 | 165 | 1.0 | 4.0 | 0.00 | 0.00 | 0.00 | 52 | 1003.9 |
| 20260505015526 | 68 | 214 | 0.0 | 2.0 | 0.00 | 0.00 | 0.00 | 52 | 1003.9 |
| 20260505015026 | 68 | 196 | 0.0 | 3.0 | 0.00 | 0.00 | 0.00 | 51 | 1003.9 |
| 20260505014525 | 68 | 163 | 0.0 | 3.0 | 0.00 | 0.00 | 0.00 | 51 | 1003.8 |
| 20260505014025 | 69 | 210 | 0.0 | 2.0 | 0.00 | 0.00 | 0.00 | 50 | 1003.8 |
| 20260505013527 | 69 | 210 | 0.0 | 2.0 | 0.00 | 0.00 | 0.00 | 49 | 1003.8 |
| 20260505013025 | 69 | 216 | 0.0 | 3.0 | 0.00 | 0.00 | 0.00 | 49 | 1003.9 |
| 20260505012529 | 70 | 234 | 1.0 | 3.0 | 0.00 | 0.00 | 0.00 | 48 | 1003.7 |
| 20260505012026 | 70 | 212 | 1.0 | 5.0 | 0.00 | 0.00 | 0.00 | 48 | 1003.7 |
| 20260505011544 | 70 | 221 | 2.0 | 6.0 | 0.00 | 0.00 | 0.00 | 47 | 1003.7 |
| 20260505011024 | 70 | 233 | 1.0 | 4.0 | 0.00 | 0.00 | 0.00 | 47 | 1003.6 |
| 20260505010527 | 71 | 235 | 1.0 | 6.0 | 0.00 | 0.00 | 0.00 | 46 | 1003.5 |
| 20260505010024 | 71 | 158 | 1.0 | 5.0 | 0.00 | 0.00 | 0.00 | 46 | 1003.6 |
| 20260505005523 | 71 | 200 | 1.0 | 6.0 | 0.00 | 0.00 | 0.00 | 45 | 1003.5 |
| 20260505005023 | 71 | 171 | 1.0 | 5.0 | 0.00 | 0.00 | 0.00 | 45 | 1003.3 |
| 20260505004523 | 71 | 218 | 2.0 | 5.0 | 0.00 | 0.00 | 0.00 | 45 | 1003.3 |
| 20260505004023 | 72 | 236 | 1.0 | 7.0 | 0.00 | 0.00 | 0.00 | 45 | 1003.0 |
| 20260505003523 | 72 | 212 | 3.0 | 7.0 | 0.00 | 0.00 | 0.00 | 44 | 1002.9 |
| 20260505003023 | 72 | 224 | 3.0 | 7.0 | 0.00 | 0.00 | 0.00 | 44 | 1003.0 |
| 20260505002524 | 72 | 212 | 3.0 | 8.0 | 0.00 | 0.00 | 0.00 | 43 | 1003.1 |
| 20260505002023 | 72 | 226 | 3.0 | 8.0 | 0.00 | 0.00 | 0.00 | 43 | 1003.0 |
| 20260505001522 | 73 | 215 | 3.0 | 9.0 | 0.00 | 0.00 | 0.00 | 43 | 1002.9 |
| 20260505001021 | 73 | 219 | 4.0 | 10.0 | 0.00 | 0.00 | 0.00 | 43 | 1003.0 |
| 20260505000522 | 73 | 217 | 4.0 | 10.0 | 0.00 | 0.00 | 0.00 | 43 | 1003.0 |
| 20260505000026 | 73 | 223 | 4.0 | 9.0 | 0.00 | 0.00 | 0.00 | 43 | 1003.0 |
| 20260504235522 | 73 | 223 | 4.0 | 9.0 | 0.00 | 0.00 | 0.00 | 43 | 1003.0 |
| 20260504235022 | 73 | 220 | 4.0 | 11.0 | 0.00 | 0.00 | 0.00 | 43 | 1002.9 |
| 20260504234523 | 73 | 252 | 5.0 | 11.0 | 0.00 | 0.00 | 0.00 | 43 | 1003.0 |
| 20260504234020 | 73 | 213 | 4.0 | 9.0 | 0.00 | 0.00 | 0.00 | 43 | 1002.9 |
| 20260504233526 | 73 | 193 | 3.0 | 9.0 | 0.00 | 0.00 | 0.00 | 43 | 1002.9 |
| 20260504233020 | 74 | 229 | 4.0 | 9.0 | 0.00 | 0.00 | 0.00 | 43 | 1002.9 |
| 20260504232520 | 74 | 244 | 3.0 | 7.0 | 0.00 | 0.00 | 0.00 | 43 | 1002.9 |
| 20260504232019 | 74 | 234 | 4.0 | 7.0 | 0.00 | 0.00 | 0.00 | 42 | 1002.7 |
| 20260504231520 | 75 | 204 | 2.0 | 8.0 | 0.00 | 0.00 | 0.00 | 42 | 1002.7 |
| 20260504231020 | 75 | 242 | 2.0 | 11.0 | 0.00 | 0.00 | 0.00 | 41 | 1002.7 |
| 20260504230520 | 75 | 226 | 4.0 | 11.0 | 0.00 | 0.00 | 0.00 | 40 | 1002.7 |
| 20260504230019 | 76 | 209 | 2.0 | 10.0 | 0.00 | 0.00 | 0.00 | 40 | 1002.7 |
| 20260504225519 | 76 | 210 | 4.0 | 11.0 | 0.00 | 0.00 | 0.00 | 40 | 1002.8 |
| 20260504225019 | 76 | 205 | 3.0 | 12.0 | 0.00 | 0.00 | 0.00 | 40 | 1002.8 |
| 20260504224519 | 76 | 239 | 6.0 | 12.0 | 0.00 | 0.00 | 0.00 | 40 | 1002.8 |
| 20260504224018 | 76 | 222 | 4.0 | 12.0 | 0.00 | 0.00 | 0.00 | 40 | 1002.8 |
| 20260504223518 | 76 | 229 | 5.0 | 12.0 | 0.00 | 0.00 | 0.00 | 40 | 1002.7 |
| 20260504223024 | 76 | 176 | 5.0 | 11.0 | 0.00 | 0.00 | 0.00 | 40 | 1002.7 |
| 20260504222518 | 77 | 218 | 5.0 | 15.0 | 0.00 | 0.00 | 0.00 | 39 | 1002.8 |
| 20260504222118 | 76 | 345 | 5.0 | 18.0 | 0.00 | 0.00 | 0.00 | 39 | 1002.9 |
| 20260504221517 | 77 | 238 | 6.0 | 17.0 | 0.00 | 0.00 | 0.00 | 39 | 1002.8 |
| 20260504221017 | 77 | 195 | 3.0 | 17.0 | 0.00 | 0.00 | 0.00 | 39 | 1002.8 |
| 20260504220517 | 77 | 181 | 6.0 | 16.0 | 0.00 | 0.00 | 0.00 | 39 | 1002.8 |
| 20260504220015 | 77 | 223 | 7.0 | 14.0 | 0.00 | 0.00 | 0.00 | 39 | 1002.8 |
| 20260504215515 | 77 | 240 | 6.0 | 13.0 | 0.00 | 0.00 | 0.00 | 39 | 1002.8 |
| 20260504215015 | 77 | 217 | 3.0 | 16.0 | 0.00 | 0.00 | 0.00 | 40 | 1002.8 |
| 20260504214514 | 76 | 229 | 8.0 | 16.0 | 0.00 | 0.00 | 0.00 | 39 | 1002.8 |
| 20260504214015 | 76 | 236 | 7.0 | 14.0 | 0.00 | 0.00 | 0.00 | 39 | 1002.8 |
| 20260504213514 | 76 | 242 | 6.0 | 18.0 | 0.00 | 0.00 | 0.00 | 39 | 1002.8 |
| 20260504213014 | 76 | 238 | 10.0 | 18.0 | 0.00 | 0.00 | 0.00 | 38 | 1002.9 |
| 20260504212514 | 76 | 254 | 8.0 | 18.0 | 0.00 | 0.00 | 0.00 | 39 | 1002.9 |
| 20260504212014 | 76 | 246 | 6.0 | 13.0 | 0.00 | 0.00 | 0.00 | 38 | 1002.9 |
| 20260504211513 | 76 | 226 | 7.0 | 13.0 | 0.00 | 0.00 | 0.00 | 38 | 1002.9 |
| 20260504211014 | 76 | 251 | 5.0 | 14.0 | 0.00 | 0.00 | 0.00 | 38 | 1002.9 |
| 20260504210512 | 76 | 191 | 6.0 | 14.0 | 0.00 | 0.00 | 0.00 | 38 | 1002.9 |
| 20260504210017 | 76 | 248 | 7.0 | 13.0 | 0.00 | 0.00 | 0.00 | 38 | 1002.9 |
| 20260504205511 | 76 | 232 | 6.0 | 12.0 | 0.00 | 0.00 | 0.00 | 38 | 1003.0 |
| 20260504205011 | 76 | 247 | 3.0 | 20.0 | 0.00 | 0.00 | 0.00 | 38 | 1003.0 |
| 20260504204510 | 76 | 233 | 7.0 | 18.0 | 0.00 | 0.00 | 0.00 | 37 | 1002.9 |
| 20260504204010 | 77 | 264 | 8.0 | 15.0 | 0.00 | 0.00 | 0.00 | 37 | 1003.0 |
| 20260504203510 | 76 | 198 | 5.0 | 14.0 | 0.00 | 0.00 | 0.00 | 39 | 1003.0 |
| 20260504203010 | 76 | 238 | 6.0 | 14.0 | 0.00 | 0.00 | 0.00 | 38 | 1003.1 |
| 20260504202509 | 76 | 226 | 5.0 | 15.0 | 0.00 | 0.00 | 0.00 | 37 | 1003.2 |
| 20260504202008 | 76 | 212 | 8.0 | 15.0 | 0.00 | 0.00 | 0.00 | 38 | 1003.3 |
| 20260504201508 | 76 | 198 | 4.0 | 10.0 | 0.00 | 0.00 | 0.00 | 38 | 1003.4 |
| 20260504201008 | 75 | 200 | 4.0 | 12.0 | 0.00 | 0.00 | 0.00 | 38 | 1003.4 |
| 20260504200507 | 75 | 164 | 5.0 | 15.0 | 0.00 | 0.00 | 0.00 | 39 | 1003.5 |
| 20260504200006 | 74 | 188 | 8.0 | 14.0 | 0.00 | 0.00 | 0.00 | 38 | 1003.5 |
| 20260504195506 | 74 | 195 | 6.0 | 14.0 | 0.00 | 0.00 | 0.00 | 39 | 1003.6 |
| 20260504195006 | 75 | 207 | 6.0 | 14.0 | 0.00 | 0.00 | 0.00 | 38 | 1003.5 |
| 20260504194506 | 76 | 249 | 5.0 | 14.0 | 0.00 | 0.00 | 0.00 | 37 | 1003.6 |
| 20260504194005 | 77 | 231 | 5.0 | 18.0 | 0.00 | 0.00 | 0.00 | 37 | 1003.5 |
| 20260504193506 | 76 | 188 | 8.0 | 18.0 | 0.00 | 0.00 | 0.00 | 36 | 1003.6 |
| 20260504193003 | 76 | 231 | 6.0 | 16.0 | 0.00 | 0.00 | 0.00 | 38 | 1003.5 |
| 20260504192502 | 75 | 195 | 6.0 | 18.0 | 0.00 | 0.00 | 0.00 | 37 | 1003.7 |
| 20260504192002 | 76 | 238 | 9.0 | 18.0 | 0.00 | 0.00 | 0.00 | 36 | 1003.8 |
| 20260504191501 | 76 | 195 | 7.0 | 15.0 | 0.00 | 0.00 | 0.00 | 37 | 1003.6 |
| 20260504191100 | 75 | 223 | 5.0 | 12.0 | 0.00 | 0.00 | 0.00 | 37 | 1003.7 |
| 20260504190602 | 76 | 218 | 5.0 | 13.0 | 0.00 | 0.00 | 0.00 | 37 | 1003.8 |
| 20260504185557 | 75 | 239 | 7.0 | 14.0 | 0.00 | 0.00 | 0.00 | 36 | 1004.0 |
| 20260504185058 | 76 | 201 | 7.0 | 12.0 | 0.00 | 0.00 | 0.00 | 36 | 1004.0 |
| 20260504184556 | 75 | 159 | 7.0 | 12.0 | 0.00 | 0.00 | 0.00 | 37 | 1004.2 |
| 20260504184056 | 75 | 235 | 6.0 | 14.0 | 0.00 | 0.00 | 0.00 | 36 | 1004.3 |
| 20260504183554 | 75 | 203 | 6.0 | 17.0 | 0.00 | 0.00 | 0.00 | 37 | 1004.4 |
| 20260504183056 | 75 | 250 | 10.0 | 17.0 | 0.00 | 0.00 | 0.00 | 35 | 1004.6 |
| 20260504182557 | 75 | 210 | 5.0 | 13.0 | 0.00 | 0.00 | 0.00 | 36 | 1004.5 |
| 20260504182053 | 75 | 210 | 4.0 | 15.0 | 0.00 | 0.00 | 0.00 | 37 | 1004.6 |
| 20260504181558 | 75 | 242 | 8.0 | 15.0 | 0.00 | 0.00 | 0.00 | 35 | 1004.8 |
| 20260504181053 | 75 | 228 | 3.0 | 15.0 | 0.00 | 0.00 | 0.00 | 37 | 1004.9 |
| 20260504180551 | 75 | 191 | 8.0 | 14.0 | 0.00 | 0.00 | 0.00 | 36 | 1004.9 |
| 20260504180051 | 75 | 193 | 2.0 | 15.0 | 0.00 | 0.00 | 0.00 | 37 | 1005.0 |
| 20260504175549 | 75 | 274 | 3.0 | 15.0 | 0.00 | 0.00 | 0.00 | 36 | 1005.1 |
| 20260504175050 | 75 | 257 | 4.0 | 13.0 | 0.00 | 0.00 | 0.00 | 37 | 1005.1 |
| 20260504174550 | 74 | 206 | 3.0 | 12.0 | 0.00 | 0.00 | 0.00 | 36 | 1005.1 |
| 20260504174047 | 75 | 220 | 6.0 | 12.0 | 0.00 | 0.00 | 0.00 | 35 | 1005.2 |
| 20260504173547 | 75 | 199 | 2.0 | 8.0 | 0.00 | 0.00 | 0.00 | 37 | 1005.1 |
| 20260504173045 | 74 | 303 | 3.0 | 14.0 | 0.00 | 0.00 | 0.00 | 36 | 1005.4 |
| 20260504172547 | 74 | 219 | 5.0 | 14.0 | 0.00 | 0.00 | 0.00 | 38 | 1005.5 |
| 20260504172045 | 73 | 244 | 4.0 | 10.0 | 0.00 | 0.00 | 0.00 | 38 | 1005.6 |
| 20260504171549 | 73 | 237 | 4.0 | 8.0 | 0.00 | 0.00 | 0.00 | 38 | 1005.6 |
| 20260504171043 | 73 | 174 | 3.0 | 7.0 | 0.00 | 0.00 | 0.00 | 36 | 1005.7 |
| 20260504170540 | 73 | 198 | 3.0 | 11.0 | 0.00 | 0.00 | 0.00 | 37 | 1005.6 |